STARLINK-30403, 57813

Orbit data source: Space-Track

STARLINK-30403, 57813 is a payload satellite owned by SpaceX/Seattle (US) in LEO that was launched on Sat, 09 Sep 2023 UTC via an FALCON 9 launch vehicle from the Air Force Eastern Test Range (AFETR). Payload-class satellites include a variety of spacecraft equipped with specific instruments for various scientific and technological missions. These include communications satellites like Starlink; space stations such as the ISS; scientific satellites like the Hubble; Earth observation satellites from companies like Planet Labs, Umbra, and HawkEye 360; GPS; miniature CubeSats for education and research; and military/defense satellites.

Loading next visibility...
Identifier
57813, 2023-138F
Orbit
LEO
Country
Flag of USUS
Related business
Manufacturer
SpaceX/Seattle
Mission
Operational Commercial Communications
Bus & Motor
STARLINK V2M, Unknown motor
Mass
730 kg wet, ~700 kg dry
Launch date (UTC)
2023-09-09 (3 years ago)
Launch vehicle
FALCON 9
Launch site
Air Force Eastern Test Range (AFETR)
Object type
Payload
Rocket body
Debris
Shape & HBR
Box + 2 Pan, 17.7 m
Radar Cross Section
33.884 m², Large (>1 m²)

Expand to show TLE details & history
Last TLE update: 2 days ago

TLE from 2 days ago
0 STARLINK-30403
1 57813U 23138F   26170.99222377  .00030664  00000-0  11253-2 0  9991
2 57813  43.0060  16.4800 0000497 232.2431 127.8376 15.27401626154283
Epoch: 2026-06-19T23:48Z
TLE epoch observation values (Epoch: 2026-06-19T23:48:48.133Z)
Latitude
-0.00001°
Longitude
111.06619°
Altitude
483.569 km
Speed
7.625 km/s
True Right ascension
01h 05m 55s
True Declination
0° 00' 00"
Sunlit
Object was in daylight at epoch
Visualization orbit readout
Latitude
Unknown
Longitude
Unknown
Altitude
Unknown
Speed
Unknown
Apparent Right ascension
Unknown
Apparent Declination
Unknown
Sunlit
N/A
Visualization observer readout
Local Sidereal Time
21:33:47
Azimuth
Unknown
Elevation
Unknown
Doppler factor
Unknown
Orbital elements
Apogee altitude
485.868 km
Perigee altitude
485.186 km
Semi-major axis
6,863.664 km
Eccentricity
0.00005
Inclination
43.006°
RAAN
16.48°
Arg. of periapsis
232.2431°
True anomaly
127.8421°
Mean anomaly
127.8376°
Eccentric anomaly
127.83985°
Mean motion
3.81689 °/min
Orbital period
94.32 mins
BSTAR
0.0011253
Loading maneuver chart data...
Computing Atmospheric mass density...
Loading historical data...
Loading historical data...
Loading historical data...
Loading historical data...
Loading historical data...
Loading historical data...
Loading historical data...

Documentation

Showing up to 5 results
|